Погода в Сиротинской

Россия / Волгоградская область     49°15′27″N   43°40′24″E
темп.,
°C
ветер,
м/с
пор.,
м/с
влажн.,
%
обл.,
%
осадки,
мм/ч
давл.,
гПа
погр.,
м
13 апреля, вт
вт1300:00+11в4105592 0.0 1026163
03:00+10в4115636 0.0 1026182
06:00+9в41352100 0.0 1026259
09:00+15вюв7143983 0.0 1026520
12:00+20вюв912290 0.0 10251073
15:00+22вюв911251 0.0 10241966
18:00+18вюв611364 0.0 1023280
21:00+13в49507 0.0 1024146
14 апреля, ср
ср1400:00+11в356029 0.0 102367
03:00+9вюв336325 0.0 102239
06:00+8в3462100 0.0 102172
09:00+16в6103842 0.0 1020474
12:00+19вюв893137 0.0 10191015
15:00+20в893071 0.0 10171662
18:00+18в5103945 0.0 1017252
21:00+14вюв354685 0.0 101773
15 апреля, чт
чт1500:00+13в3450100 0.0 101645
03:00+12вюв2253100 0.0 101612
06:00+12в2257100 0.0 101517
09:00+16ююв3447100 0.0 1015342
12:00+18ююз4445100 0.0 10151286
15:00+19ю5444100 0.0 10141754
18:00+15ююз3561100 0.0 1014201
21:00
16 апреля, пт
пт1600:00+12ю1172100 0.0 101312
03:00+11зюз227986 0.0 101444
06:00+11з348459 0.0 1014118
09:00+15з45662 0.1 1015740
12:00+18з554725 0.4 10151898
15:00+19зюз45385 0.4 10152207
18:00+17зюз4647100 0.0 1016171
21:00+15ссв2359100 0.0 101569
17 апреля, сб
сб1700:00+12з4667100 0.0 1017114
03:00+10з71088100 0.7 1017325
06:00+10з2588100 3.1 1017215
09:00+10юз4585100 3.3 1017523
12:00+10зсз6785100 0.9 1019709
15:00+12зсз566572 1.7 10191169
18:00+12з34694 0.1 1019426
21:00+9зсз22785 0.1 102011